Elkins, WV

10:20 AM EST on December 15, 2017 (GMT -0500)
Elkins-Randolph County

Weather History for KEKN - September, 2013

Change the Weather History Date:

Sunday, September 22, 2013

  Actual Average Record
Temperature  
Mean Temperature 57 °F 60 °F  
Max Temperature 66 °F 72 °F 89 °F (1914)
Min Temperature 47 °F 48 °F 30 °F (1999)
Degree Days  
Heating Degree Days 8 6  
Month to date heating degree days 63 70  
Since 1 July heating degree days 86 100  
Cooling Degree Days 0 1  
Month to date cooling degree days 60 40  
Year to date cooling degree days 523 466  
Growing Degree Days 8 (Base 50)    
Moisture  
Dew Point 51 °F    
Average Humidity 78    
Maximum Humidity 100    
Minimum Humidity 56    
Precipitation  
Precipitation 0.00 in 0.12 in 1.32 in (1919)
Month to date precipitation 2.36 2.71  
Year to date precipitation 35.28 35.52  
Snow  
Snow 0.00 in 0.00 in 0.00 in (2016)
Month to date snowfall 0.0 0.0  
Since 1 September snowfall 0.0 0.0  
Snow Depth 0.00 in    
Sea Level Pressure  
Sea Level Pressure 29.92 in    
Wind  
Wind Speed 2 mph (NNW)    
Max Wind Speed 12 mph    
Max Gust Speed 16 mph    
Visibility 7 miles    
Events Fog    
T = Trace of Precipitation, MM = Missing Value Source: NWS Daily Summary

Daily Weather History Graph

Daily Weather History Graph

Search for Another Location

Airport or City:

Trip Planner

Search our weather history database for the weather conditions in past years. The results will help you decide how hot, cold, wet, or windy it might be!

Date:

Astronomy

Sep. 22, 2013 Rise Set
Actual Time 7:07 AM EDT 7:16 PM EDT
Civil Twilight 6:40 AM EDT 7:42 PM EDT
Nautical Twilight 6:09 AM EDT 8:13 PM EDT
Astronomical Twilight 5:37 AM EDT 8:45 PM EDT
Moon 9:07 PM EDT (9/22) 10:23 AM EDT (9/22)
Length of Visible Light 13h 01m
Length of Day
12h 08m
Waning Gibbous, 89% of the Moon is Illuminated
Sep 22
Waning Gibbous
Sep 26
Last Quarter
Oct 4
New
Oct 11
First Quarter
Oct 18
Full

Hourly Weather History & Observations

Time (EDT) Temp. Dew Point Humidity Pressure Visibility Wind Dir Wind Speed Gust Speed Precip Events Conditions
12:35 AM 53.6 °F 53.6 °F 100% 29.85 in 0.8 mi Calm Calm - N/A   Mist
12:51 AM 54.0 °F 53.1 °F 97% 29.85 in 0.5 mi Calm Calm - N/A Fog Fog
1:51 AM 53.1 °F 52.0 °F 96% 29.86 in 0.5 mi Calm Calm - N/A Fog Fog
2:06 AM 53.6 °F 51.8 °F 94% 29.86 in 1.0 mi Calm Calm - N/A   Mist
2:39 AM 53.6 °F 51.8 °F 94% 29.85 in 2.5 mi Calm Calm - N/A   Overcast
2:43 AM 53.6 °F 51.8 °F 94% 29.85 in 3.0 mi Calm Calm - N/A   Overcast
2:51 AM 53.1 °F 52.0 °F 96% 29.86 in 2.5 mi Calm Calm - N/A   Overcast
3:03 AM 53.6 °F 51.8 °F 94% 29.85 in 5.0 mi Calm Calm - N/A   Overcast
3:19 AM 53.6 °F 51.8 °F 94% 29.85 in 2.0 mi Calm Calm - N/A   Overcast
3:30 AM 53.6 °F 51.8 °F 94% 29.85 in 5.0 mi Calm Calm - N/A   Overcast
3:38 AM 53.6 °F 51.8 °F 94% 29.85 in 5.0 mi Calm Calm - N/A   Overcast
3:51 AM 53.1 °F 52.0 °F 96% 29.86 in 5.0 mi Calm Calm - N/A   Overcast
4:00 AM 53.6 °F 51.8 °F 94% 29.86 in 10.0 mi Calm Calm - N/A   Overcast
4:08 AM 53.6 °F 53.6 °F 100% 29.86 in 10.0 mi Calm Calm - N/A   Overcast
4:51 AM 54.0 °F 53.1 °F 97% 29.87 in 10.0 mi Calm Calm - N/A   Overcast
4:59 AM 53.6 °F 53.6 °F 100% 29.86 in 10.0 mi Calm Calm - N/A   Overcast
5:23 AM 53.6 °F 51.8 °F 94% 29.87 in 10.0 mi Calm Calm - N/A   Mostly Cloudy
5:34 AM 53.6 °F 51.8 °F 94% 29.87 in 6.0 mi Calm Calm - N/A   Mostly Cloudy
5:44 AM 51.8 °F 51.8 °F 100% 29.88 in 2.0 mi Calm Calm - N/A   Mostly Cloudy
5:51 AM 52.0 °F 51.1 °F 97% 29.88 in 0.8 mi Calm Calm - N/A   Mist
6:51 AM 53.1 °F 52.0 °F 96% 29.89 in 0.5 mi Calm Calm - N/A Fog Fog
7:15 AM 51.8 °F 51.8 °F 100% 29.90 in 2.0 mi Calm Calm - N/A   Overcast
7:23 AM 51.8 °F 51.8 °F 100% 29.90 in 6.0 mi Calm Calm - N/A   Overcast
7:28 AM 51.8 °F 51.8 °F 100% 29.90 in 1.8 mi Calm Calm - N/A   Overcast
7:51 AM 53.1 °F 51.1 °F 93% 29.91 in 3.0 mi Calm Calm - N/A   Overcast
8:51 AM 54.0 °F 52.0 °F 93% 29.92 in 10.0 mi Calm Calm - N/A   Overcast
8:58 AM 53.6 °F 51.8 °F 94% 29.92 in 10.0 mi Calm Calm - N/A   Overcast
9:23 AM 55.4 °F 53.6 °F 94% 29.93 in 10.0 mi Calm Calm - N/A   Mostly Cloudy
9:36 AM 55.4 °F 53.6 °F 94% 29.93 in 10.0 mi Calm Calm - N/A   Mostly Cloudy
9:43 AM 55.4 °F 51.8 °F 88% 29.93 in 10.0 mi Calm Calm - N/A   Mostly Cloudy
9:51 AM 57.0 °F 53.1 °F 87% 29.94 in 10.0 mi Calm Calm - N/A   Mostly Cloudy
10:11 AM 57.2 °F 51.8 °F 82% 29.94 in 10.0 mi Calm Calm - N/A   Overcast
10:51 AM 57.0 °F 50.0 °F 77% 29.95 in 10.0 mi WNW 5.8 mph - N/A   Mostly Cloudy
11:51 AM 61.0 °F 50.0 °F 67% 29.95 in 10.0 mi North 5.8 mph - N/A   Mostly Cloudy
12:39 PM 60.8 °F 50.0 °F 68% 29.95 in 10.0 mi North 6.9 mph - N/A   Overcast
12:51 PM 60.1 °F 48.9 °F 67% 29.96 in 10.0 mi WNW 5.8 mph - N/A   Mostly Cloudy
1:51 PM 61.0 °F 48.0 °F 62% 29.94 in 10.0 mi Calm Calm - N/A   Overcast
2:51 PM 64.9 °F 48.0 °F 54% 29.93 in 10.0 mi NW 6.9 mph 16.1 mph N/A   Mostly Cloudy
3:51 PM 64.0 °F 48.9 °F 58% 29.93 in 10.0 mi WNW 8.1 mph - N/A   Overcast
4:51 PM 64.0 °F 50.0 °F 60% 29.94 in 10.0 mi NNW 8.1 mph - N/A   Mostly Cloudy
5:51 PM 59.0 °F 48.9 °F 69% 29.95 in 10.0 mi NNW 5.8 mph - N/A   Scattered Clouds
6:51 PM 57.0 °F 48.0 °F 72% 29.97 in 10.0 mi North 3.5 mph - N/A   Scattered Clouds
7:51 PM 55.0 °F 46.9 °F 74% 29.99 in 10.0 mi North 5.8 mph - N/A   Mostly Cloudy
8:51 PM 55.0 °F 48.0 °F 77% 30.01 in 10.0 mi Calm Calm - N/A   Overcast
9:34 PM 53.6 °F 46.4 °F 77% 30.01 in 10.0 mi Calm Calm - N/A   Overcast
9:51 PM 54.0 °F 46.9 °F 77% 30.02 in 10.0 mi NNW 3.5 mph - N/A   Overcast
10:01 PM 53.6 °F 46.4 °F 77% 30.02 in 10.0 mi Calm Calm - N/A   Overcast
10:51 PM 51.1 °F 46.0 °F 83% 30.04 in 10.0 mi Calm Calm - N/A   Mostly Cloudy
11:51 PM 48.9 °F 46.0 °F 90% 30.04 in 10.0 mi Calm Calm - N/A   Overcast